Terminal Aerodrome Forecast
Issued by NWS

Home | Current Version | Previous Version | Text Only | Print | Product List | Glossary On
Versions: 1 2 3 4 5 6 7 8 9 10 11 12 13 14 15 16 17 18 19 20 21 22 23 24
000
FTUS44 KOUN 170529
TAFWWR
TAF
KWWR 170529Z 1706/1806 VRB04KT P6SM SCT250
     FM172300 14012KT P6SM SCT150
     FM180300 15008KT P6SM SCT250 PROB30 1803/1806 3SM TSRA
      BKN050CB=

USA.gov is the U.S. government's official web portal to all federal, state and local government web resources and services.